Location: Asheville, NC
(35.6000°N, 82.5500°W)
Time: 22:42:17

KKS-1 - Pass Details

Date: 15 March 2018
Orbit: 638 x 650 km, 98.4° (Epoch: 18 March)

Event Time Altitude Azimuth Distance (km) Brightness Sun altitude
Rises 05:13:01 0° 125° (SE) 2,953 ? -30.3°
Reaches altitude 10° 05:15:59 10° 103° (ESE) 2,048 ? -29.8°
Maximum altitude 05:18:39 16° 66° (ENE) 1,695 ? -29.3°
Drops below altitude 10° 05:21:19 10° 29° (NNE) 2,056 ? -28.8°
Sets 05:24:18 0° 8° (N) 2,971 ? -28.2°
